SCP
0 0 0 0 0 0 0 0 0 0 0 0 0 0 0 0 0 0 0 0 0 0 0 0 0 0 0 0 0 0 0 0 0 0 0 0 1 0
0 0 0 0 0 0 0 0 0 0 0 0 0 0 0 0 0 0 0 0 0 0 0 0 0 0 0 0 0 0 0 0 0 0 0 0 0 0
0 0 0 0 0 0 0 0 0 0 0 0 0 0 0 0 0 0 0 0 0 0 0 0 0 0 0 0 0 0 0 0 0 0 0 0 0 0
0 0 0 0 0 0 0 0 0 0 0 0 0 0 0 0 0 0 0 0 0 0 0 0 0 0 0 0 0 0 0 0 0 0 0 0 0 0
0 0 0 0 0 0 0 0 0 0 0 0 0 0 0 0 0 0 0 0 0 0 0 0 0 0 0 0 0 0 0 0 0 0 0 0 0 0
0 0 0 0 0 0 0 0 0 0 0 0 0 0 0 0 0 0 0 0 0 0 0 0 0 0 0 0 0 0 0 0 0 0 0 0 0 0
0 0 0 0 0 0 0 0 0 0 0 0 0 0 0 0 0 0 0 0 0 0 0 0 0 0 0 0 0 0 0 0 0 0 0 0 0 0
0 0 0 0 0 0 0 0 0 0 0 0 0 0 0 0 0 0 0 0 0 0 0 0 0 0 0 0 0 0 0 0 0 0 0 0 0 0
0 0 0 0 0 0 0 0 0 0 0 0 0 0 0 0 0 0 0 0 0 0 0 0 0 0 0 0 0 0 0 0 0 0 0 0 0 0
0 0 0 0 0 0 0 0 0 0 0 0 0 0 0 0 0 0 0 0 0 0 0 0 0 0 0 0 0 0 0 0 0 0 0 0 0 0
0 0 0 0 0 0 0 0 0 0 0 0 0 0 0 0 0 0 0 0 0 0 0 0 0 0 0 0 0 0 0 0 0 0 0 0 0 0
0 0 0 0 0 0 0 0 0 0 0 0 0 0 0 0 0 0 0 0 0 0 0 0 0 0 0 0 0 0 0 0 0 0 0 0 0 0
0 0 0 0 0 0 0 0 0 0 0 0 0 0 0 0 0 0 0 0 0 0 0 0 0 0 0 0 0 0 0 0 0 0 0 0 0 0
0 0 0 0 0 0 0 0 0 0 0 0 0 0 0 0 0 0 0 0 0 0 0 0 0 0 0 0 0 0 0 0 0 0 0 0 0 0
0 0 0 0 0 0 0 0 0 0 0 0 0 0 0 0 0 0 0 0 0 0 0 0 0 0 0 0 0 0 0 0 0 0 0 0 0 0
0 0 0 0 0 0 0 0 0 0 0 0 0 0 0 0 0 0 0 0 0 0 0 0 0 0 0 0 0 0 0 0 0 0 0 0 0 0
0 0 0 0 0 0 0 0 0 0 0 0 0 0 0 0 0 0 0 0 0 0 0 0 0 0 0 0 0 0 0 0 0 0 0 0 0 0
0 0 0 0 0 0 0 0 0 0 0 0 0 0 0 0 0 0 0 0 0 0 0 0 0 0 0 0 0 0 0 0 0 0 0 0 0 0
0 0 0 0 0 0 0 0 0 0 0 0 0 0 0 0 0 0 0 0 0 0 0 0 0 0 0 0 0 0 0 0 0 0 0 0 0 0
0 0 0 0 0 0 0 0 0 0 0 0 0 0 0 0 0 0 0 0 0 0 0 0 0 0 0 0 0 0 0 0 0 0 0 0 0 0
0 0 0 0 0 0 0 0 0 0 0 0 0 0 0 0 0 0 0 0 0 0 0 0 0 0 0 0 0 0 0 0 0 0 0 0 0 0
0 0 0 0 0 0 0 0 0 0 0 0 0 0 0 0 0 0 0 0 0 0 0 0 0 0 0 0 0 0 0 0 0 0 0 0 0 0
0 0 0 0 0 0 0 0 0 0 0 0 0 0 0 0 0 0 0 0 0 0 0 0 0 0 0 0 0 0 0 0 0 0 0 0 0 0
Wind_Speed
5 5 4 4 4 5 6 7 9 17 14 6 4 4 4 5 12 9 7 19 29 29 31 33 34 33 32 32 33 31 30 32 33 34 34 33 32 32
4 5 4 4 5 6 6 6 6 11 16 9 6 6 7 10 18 11 8 25 26 29 31 32 33 33 32 33 34 32 32 34 35 34 34 33 33 32
6 5 6 6 6 7 7 8 8 8 13 15 10 7 8 9 11 8 8 9 12 26 32 34 33 33 34 35 35 35 35 34 33 32 32 33 33 33
7 5 6 7 8 8 8 9 9 9 10 16 14 10 10 9 9 9 12 13 10 25 32 31 32 33 34 34 34 33 31 31 32 33 32 32 32 32
6 6 6 8 9 9 10 10 9 9 8 12 16 13 10 7 10 13 14 11 14 18 24 26 29 32 33 33 31 31 33 33 32 32 31 32 32 32
6 6 7 7 10 11 11 8 8 10 10 11 13 14 9 8 9 12 15 9 11 12 17 21 25 29 31 31 33 33 32 31 31 31 30 30 30 31
6 7 8 13 18 16 13 11 12 11 12 12 14 13 11 10 11 11 15 14 11 8 10 12 12 11 14 22 27 29 30 31 30 30 30 31 30 30
8 8 9 12 16 22 25 26 24 18 16 13 12 14 15 13 13 14 15 16 14 7 9 14 11 12 11 9 22 30 32 32 31 31 32 32 32 30
9 9 11 12 18 11 19 25 21 26 22 16 15 15 16 16 16 17 16 16 17 14 13 16 9 11 11 15 28 31 32 32 32 32 31 31 31 31
9 10 10 10 12 17 15 13 12 10 16 14 11 12 14 13 14 16 17 16 15 11 10 14 12 12 14 12 24 31 31 31 31 31 30 28 27 26
9 9 11 10 21 28 19 14 11 12 19 24 25 24 29 28 22 14 13 12 14 13 9 10 13 14 13 13 16 27 28 28 29 30 31 31 29 27
8 9 17 21 26 26 14 9 13 15 13 14 16 19 17 17 23 14 12 13 14 12 8 7 12 12 10 8 7 8 12 22 28 30 31 30 29 18
9 8 9 23 24 24 22 11 18 20 12 13 13 13 12 10 11 11 11 12 13 13 11 10 11 11 11 11 10 9 9 10 12 16 22 27 28 22
9 7 9 22 25 25 18 21 26 21 11 11 12 12 11 11 11 12 14 14 14 17 17 16 12 12 12 14 12 8 9 10 11 13 12 18 20 24
9 17 20 23 22 14 20 24 19 10 11 11 12 12 10 11 12 12 12 12 14 14 14 14 13 11 10 12 11 10 11 11 9 10 11 11 10 8
8 12 19 20 17 18 16 13 9 10 12 11 12 12 12 10 11 11 12 12 12 11 9 9 11 12 10 9 9 12 11 10 11 13 11 9 7 5
12 5 6 8 8 10 10 9 10 11 11 11 12 13 13 12 12 11 10 11 11 11 10 8 8 8 7 6 7 10 12 11 11 10 7 5 5 4
14 8 8 8 9 11 12 12 11 11 11 11 11 11 12 12 12 11 10 10 11 11 10 9 9 7 5 4 7 10 9 8 8 8 6 6 7 8
9 8 8 10 11 11 11 11 11 11 11 11 11 11 11 11 11 11 11 10 10 10 9 8 7 5 5 7 9 12 9 7 9 9 9 8 9 11
8 9 9 10 11 11 11 11 11 11 11 11 11 11 11 11 11 11 10 11 10 9 8 7 6 6 4 5 6 8 15 11 9 10 10 9 10 15
10 10 10 10 11 11 11 11 11 12 12 12 11 11 10 10 10 10 10 14 11 8 8 8 8 12 6 4 4 6 9 16 18 13 10 9 11 15
11 11 11 11 11 11 11 11 11 12 12 11 11 11 10 10 11 11 9 8 7 7 6 6 7 7 5 6 7 7 8 10 14 23 26 23 13 12
11 11 11 11 10 10 10 11 13 12 11 11 11 10 11 10 9 8 7 7 6 6 5 5 6 5 5 5 5 6 10 10 9 11 15 25 29 28
Wind_Direction
302 300 297 294 299 295 292 291 297 306 303 290 280 247 246 267 287 291 274 296 302 300 301 301 298 294 292 292 290 289 291 292 290 287 284 281 280 279
299 302 301 299 302 300 296 292 285 290 296 299 289 276 276 293 298 294 281 298 299 297 296 297 296 293 293 293 291 289 291 289 285 283 281 280 278 277
297 301 298 302 305 304 299 294 290 285 290 298 296 292 284 281 290 278 281 277 279 290 293 293 292 293 294 294 293 292 289 286 286 285 284 282 279 276
293 294 293 309 308 304 300 296 293 283 283 295 301 300 289 283 289 293 299 293 283 289 291 293 294 294 293 292 291 288 288 290 291 287 284 282 280 278
284 281 286 302 306 302 297 292 288 293 288 294 297 297 293 298 302 296 292 288 290 292 294 294 294 294 293 293 293 295 295 291 287 283 281 280 278 277
272 267 275 291 298 298 296 291 300 299 294 292 295 295 295 296 295 301 303 292 287 289 290 291 292 294 295 295 294 292 290 287 283 279 279 280 279 276
275 263 271 302 308 306 308 311 306 300 301 301 301 303 307 308 303 302 300 299 288 284 285 285 285 281 283 286 288 287 285 284 280 279 283 283 280 276
284 275 285 298 299 310 312 308 306 307 307 306 310 307 304 302 302 301 302 302 300 292 283 292 288 285 282 277 282 286 287 286 284 283 282 279 277 274
304 299 305 309 313 300 295 300 306 309 312 311 301 300 303 306 304 302 299 297 296 299 297 293 286 284 284 285 289 288 286 285 282 280 278 275 271 269
305 301 295 291 293 299 301 306 306 312 306 303 295 298 302 300 297 300 298 295 291 287 283 290 293 289 290 285 286 284 284 283 282 282 280 277 272 268
304 302 306 300 303 315 320 318 319 308 312 314 314 311 310 310 308 305 301 300 298 296 289 283 291 292 288 282 279 282 283 283 284 285 282 278 273 269
297 295 307 312 317 326 329 326 317 311 315 318 315 310 306 301 305 304 301 297 296 296 288 278 291 298 294 269 264 272 278 281 284 285 283 278 272 265
310 309 307 320 328 331 332 322 310 320 324 316 310 306 304 303 302 297 294 292 293 291 293 294 294 293 287 291 289 280 275 278 283 282 281 275 268 257
315 313 318 329 331 332 329 319 324 329 319 311 309 310 310 306 303 299 295 290 283 284 289 291 290 294 296 295 297 294 290 284 281 279 273 272 269 257
319 326 331 332 333 330 321 325 329 321 313 312 312 310 304 298 301 302 299 293 288 284 284 284 288 293 290 292 295 294 302 298 286 283 284 277 263 250
323 329 333 331 329 325 325 324 319 313 317 313 311 308 307 305 307 308 308 309 305 303 290 282 289 295 296 289 284 287 293 291 297 297 291 283 271 248
335 327 321 323 322 323 322 320 320 320 319 313 311 311 312 312 311 312 308 308 308 311 317 315 307 299 279 260 281 288 297 299 297 303 305 309 306 298
340 326 324 322 321 323 322 320 319 318 316 313 310 309 310 311 312 312 311 313 315 317 320 320 325 328 327 284 259 292 307 314 324 334 337 339 353 348
335 323 322 322 320 318 316 315 315 313 311 309 308 309 309 309 310 312 315 318 319 320 322 323 327 327 333 332 321 330 344 343 348 357 3 6 10 8
328 326 322 319 317 315 315 314 313 313 312 310 308 308 308 308 310 311 314 319 321 324 324 328 332 335 321 311 309 323 4 16 5 4 2 9 20 22
328 324 318 315 314 313 312 311 310 310 308 308 307 307 308 308 308 308 311 319 326 326 328 331 327 335 326 325 355 6 14 27 38 31 11 8 25 35
323 319 315 312 312 311 310 310 310 309 308 306 305 305 306 307 306 306 311 317 321 323 317 318 327 340 358 21 27 22 25 27 33 41 44 45 44 45
320 316 313 311 311 310 309 309 307 305 303 301 300 302 304 305 303 304 311 312 317 321 321 329 339 349 0 12 25 31 33 31 32 43 48 50 58 63